Regional Weather Roundup
Issued by NWS Jackson, KY

Home | Current Version | Previous Version | Text Only | Print | Product List | Glossary On
Versions: 1 2 3 4 5 6 7 8 9 10 11 12 13 14 15 16 17 18 19 20 21 22 23 24 25 26 27 28 29 30 31 32 33 34 35 36 37 38 39 40 41 42 43 44 45 46 47 48 49 50
000
ASUS43 KJKL 202210
RWRJKL

EAST KENTUCKY HOURLY WEATHER ROUNDUP
NATIONAL WEATHER SERVICE JACKSON KY
500 PM EST MON FEB 20 2017

NOTE: "FAIR" INDICATES FEW OR NO CLOUDS BELOW 12,000 FEET WITH
NO SIGNIFICANT WEATHER AND/OR OBSTRUCTIONS TO VISIBILITY.

* THESE REPORTS ARE NOT UNDER NWS QUALITY CONTROL AND MAY NOT
  REPORT WEATHER SUCH AS PRECIPITATION AND FOG.

KYZ079-080-083-085-087-088-110-112-115-119-120-202300
...EASTERN KENTUCKY...

CITY           SKY/WX    TMP DP  RH WIND       PRES   REMARKS
JACKSON        MOSUNNY   69  37  30 CALM      30.13F
LONDON         SUNNY     68  33  27 SE6       30.11F
SOMERSET*      CLOUDY    68  39  34 E3        30.11S
MONTICELLO*    PTSUNNY   70  46  42 N17       30.11S
WILLIAMSBURG*  CLEAR     68  37  32 S7        30.10F
MIDDLESBORO*   MOSUNNY   69  41  36 CALM      30.13S
HARLAN APT*    PTCLDY    70  32  24 CALM      30.12F
PIKE CO APT*     N/A     66  35  32 CALM      30.14S
BIG SANDY APT* CLEAR     68  35  29 E3        30.14S
MOREHEAD APT*  PTCLDY    68  39  34 E5        30.14F
ASHLAND*       MOSUNNY   64  46  52 SE5       30.13F
$$

KYZ035-036-041-042-044-050-067-078-099-202300
...CENTRAL KENTUCKY...

CITY           SKY/WX    TMP DP  RH WIND       PRES   REMARKS
FLEMING/MASON* SUNNY     64  46  51 E8        30.13F
DANVILLE*      CLOUDY    68  41  37 SW6       30.11S
LEXINGTON      CLOUDY    71  41  33 E6        30.10F
FRANKFORT      SUNNY     71  42  35 SE8       30.09R
LOUISVILLE     CLOUDY    72  45  37 SE6       30.07S
LEBANON*         N/A     72  43  35 S6        30.09S
GLASGOW*       CLOUDY    71  43  36 SE6       30.08S
BOWLING GREEN  CLOUDY    73  42  32 SW10      30.06S
$$

KYZ091>093-OHZ055-061-077-WVZ005-015-034-035-042-202300
...SOUTHERN OHIO/WEST VIRGINIA...

CITY           SKY/WX    TMP DP  RH WIND       PRES   REMARKS
COVINGTON      CLOUDY    63  48  58 E7        30.11S
COLUMBUS       CLOUDY    63  37  38 E9        30.16F
DAYTON         CLOUDY    63  39  41 SE12      30.13F
WILMINGTON     CLOUDY    62  41  46 E10       30.13F
HUNTINGTON     SUNNY     64  41  42 NE7       30.15S
CHARLESTON     MOSUNNY   64  39  39 N5        30.15F
PINEVILLE*     MOSUNNY   67  29  23 MISG      30.19S
BECKLEY        MOSUNNY   65  15  14 SE6       30.18F
BLUEFIELD      SUNNY     63  29  27 E7        30.19F
LOGAN CO APT*    N/A     66  37  34 CALM      30.14F
$$

VAZ002-007-008-TNZ017-027-036-066-071-202300
...SOUTHWEST VIRGINIA/EAST TENNESSEE...

CITY           SKY/WX    TMP DP  RH WIND       PRES   REMARKS
WISE*          MOSUNNY   66  23  19 CALM      30.17S
JONESVILLE*      N/A     70  37  30 CALM      30.15F
ABINGDON*      MOSUNNY   70  31  23 SW5       30.15F
BRISTOL        CLOUDY    68  37  32 CALM      30.14S
MORRISTOWN*    CLEAR     68  45  42 CALM      30.12F
SEVIERVILLE*   CLEAR     66  39  37 CALM      30.11F
KNOXVILLE      CLOUDY    69  42  37 N3        30.11F
LAFOLLETTE*    CLEAR     68  41  37 S6        30.14F
OAK RIDGE      MOSUNNY   69  42  37 CALM      30.12F
CROSSVILLE     CLOUDY    66  42  41 SE5       30.13S
NASHVILLE      CLOUDY    75  42  30 S8        30.07S
$$

...KEY TO REMARKS...
VSB - VISIBILITY IN MILES
WCI - WIND CHILL INDEX
HX  - HEAT INDEX

$$



USA.gov is the U.S. government's official web portal to all federal, state and local government web resources and services.